This demonstration page uses our WeatherBlox Daily Observations layout. Learn more.

Left ArrowRight Arrow

44.89941, -97.11507

Hourly Observations for January 18, 2020

Temp ( °F °C ) Dew Point ( °F °C ) Humidity (%) Winds ( mph kmh ) Pressure ( in mb ) Visibility ( mi km ) Precip ( " mm )
12:20 am 00:20 Cloudy with Light Snow 23 -5 21 -6.1 92 92 WSW 3 6 29.88 1012 3 4 0.00 0.00
12:23 am 00:23 Cloudy with Light Snow 23 -5 22 -5.6 96 96 WSW 3 6 29.88 1012 3 5 0.00 0.00
12:53 am 00:53 Cloudy with Light Snow 23 -5 21 -6.1 92 92 Calm 29.83 1010 5 8 0.00 0.00
1:33 am 01:33 Cloudy with Mist and Fog 22 -5.6 20 -6.7 92 92 WNW 23 37 29.88 1012 4 6 0.01 0.25
1:35 am 01:35 Windy with Snow Likely 20 -6.7 17 -8.3 89 89 WNW 26 43 29.90 1012 2 3 0.01 0.25
1:40 am 01:40 Windy with Snow Likely 14 -10 11 -11.7 88 88 WNW 26 43 29.92 1013 1 1 0.01 0.25
1:51 am 01:51 Windy with Snow Likely 12 -11 9 -13 85 85 WNW 26 43 29.94 1014 1 1 0.01 0.25
1:53 am 01:53 Windy with Snow Likely 12 -11.1 9 -12.8 87 87 NW 25 41 29.88 1012 1 1 0.01 0.25
2:29 am 02:29 Windy with Snow Likely 9 -12.8 6 -14.4 88 88 NW 28 44 30.00 1016 1 2 0.00 0.00
2:53 am 02:53 Windy with Snow Likely 7 -13.9 3 -16.1 84 84 NW 29 46 29.94 1014 1 2 0.00 0.00
3:03 am 03:03 Mostly Cloudy with Light Snow 6 -14.4 3 -16.1 87 87 NW 22 35 30.04 1017 1 1 0.00 0.00
3:27 am 03:27 Mostly Cloudy with Light Snow 4 -15.6 1 -17.2 88 88 NW 25 41 30.08 1019 1 1 0.00 0.00
3:34 am 03:34 Mostly Cloudy with Light Snow 4 -15.6 0 -17.8 83 83 NW 28 44 30.08 1019 1 1 0.00 0.00
3:41 am 03:41 Windy with Snow Likely 4 -15.6 0 -17.8 83 83 NW 23 37 30.09 1019 1 1 0.00 0.00
3:48 am 03:48 Windy with Snow Likely 3 -16 0 -18 85 85 NW 26 43 30.09 1019 1 2 0.00 0.00
3:53 am 03:53 Windy with Snow Likely 3 -16.1 -1 -18.3 83 83 NW 26 43 29.99 1016 1 1 0.00 0.00
4:17 am 04:17 Windy with Snow Likely 2 -16.7 -1 -18.3 88 88 NW 25 41 30.11 1020 1 2 0.00 0.00
4:24 am 04:24 Mostly Cloudy with Light Snow 2 -16.7 -2 -18.9 83 83 NW 31 50 30.11 1020 1 1 0.00 0.00
4:53 am 04:53 Mostly Cloudy with Light Snow 2 -16.7 -2 -18.9 83 83 NW 26 43 30.02 1017 1 1 0.00 0.00
5:13 am 05:13 Windy with Snow Likely 2 -16.7 -2 -18.9 83 83 NW 29 46 30.12 1020 1 2 0.00 0.00
5:33 am 05:33 Windy with Snow Likely 2 -16.7 -2 -18.9 83 83 NW 26 43 30.13 1020 2 3 0.00 0.00
5:44 am 05:44 Windy with Snow Likely 2 -16.7 -3 -19.4 80 80 NW 31 50 30.13 1020 2 3 0.00 0.00
5:53 am 05:53 Windy with Snow Likely 2 -16.7 -2 -18.9 83 83 NW 28 44 30.04 1017 2 3 0.00 0.00
6:02 am 06:02 Mostly Cloudy with Light Snow 2 -16.7 -2 -18.9 83 83 NW 31 50 30.15 1021 2 3 0.00 0.00
6:25 am 06:25 Windy with Snow Likely 2 -16.7 -2 -18.9 83 83 NW 31 50 30.16 1021 2 2 0.00 0.00
6:33 am 06:33 Windy with Snow Likely 2 -16.7 -2 -18.9 83 83 NW 29 46 30.16 1021 2 2 0.00 0.00
6:53 am 06:53 Windy with Snow Likely 2 -16.7 -2 -18.9 83 83 WNW 23 37 30.07 1018 2 2 0.00 0.00
7:00 am 07:00 Windy with Snow Likely 2 -16.7 -2 -18.9 83 83 WNW 31 50 30.17 1022 1 2 0.00 0.00
7:12 am 07:12 Windy with Snow Likely 2 -16.7 -3 -19.4 80 80 WNW 30 48 30.18 1022 2 2 0.00 0.00
7:29 am 07:29 Windy with Snow Likely 1 -17.2 -4 -20 79 79 NW 29 46 30.19 1022 1 2 0.00 0.00
7:35 am 07:35 Windy with Snow Likely 1 -17.2 -4 -20 79 79 NW 30 48 30.19 1022 2 3 0.00 0.00
7:46 am 07:46 Windy with Snow Likely 1 -17.2 -3 -19.4 83 83 WNW 24 39 30.19 1022 1 2 0.00 0.00
7:53 am 07:53 Windy with Snow Likely 0 -17.8 -4 -20 83 83 NW 28 44 30.09 1019 1 1 0.00 0.00
8:02 am 08:02 Windy with Snow Likely 0 -17.8 -5 -20.6 79 79 NW 32 52 30.21 1023 1 2 0.00 0.00
8:08 am 08:08 Windy with Snow Likely 0 -17.8 -6 -21.1 76 76 WNW 23 37 30.22 1023 1 1 0.00 0.00
8:15 am 08:15 Cloudy with Haze 0 -17.8 -5 -20.6 79 79 WNW 28 44 30.22 1023 2 2 0.00 0.00
8:24 am 08:24 Windy with Snow Likely 0 -17.8 -6 -21.1 76 76 NW 26 43 30.22 1023 1 2 0.00 0.00
8:41 am 08:41 Windy with Snow Likely -1 -18.3 -6 -21.1 79 79 WNW 28 44 30.23 1024 1 1 0.00 0.00
8:51 am 08:51 Windy with Snow Likely 0 -18 -6 -21 78 78 WNW 30 48 30.23 1024 1 2 0.00 0.00
8:53 am 08:53 Windy with Snow Likely -1 -18.3 -6 -21.1 79 79 NW 25 41 30.12 1020 1 1 0.00 0.00
9:01 am 09:01 Windy with Snow Likely -2 -18.9 -6 -21.1 83 83 NW 35 56 30.24 1024 0 0 0.00 0.00
9:09 am 09:09 Cloudy with Snow -2 -18.9 -7 -21.7 79 79 WNW 24 39 30.25 1024 1 1 0.01 0.25
9:19 am 09:19 Cloudy with Heavy Snow -3 -19.4 -8 -22.2 79 79 WNW 23 37 30.26 1025 0 0 0.02 0.51
9:34 am 09:34 Mostly Cloudy with Snow -4 -20 -9 -22.8 79 79 NW 31 50 30.27 1025 1 1 0.02 0.51
9:50 am 09:50 Mostly Cloudy with Light Snow -4 -20 -9 -23 77 77 WNW 22 35 30.28 1025 1 2 0.02 0.51
9:53 am 09:53 Mostly Cloudy with Haze -4 -20 -9 -22.8 79 79 WNW 24 39 30.16 1021 1 2 0.02 0.51
10:00 am 10:00 Mostly Cloudy with Haze -4 -20 -9 -22.8 79 79 WNW 25 41 30.28 1025 1 1 0.00 0.00
10:21 am 10:21 Mostly Cloudy with Haze -4 -20 -9 -22.8 79 79 WNW 25 41 30.30 1026 1 2 0.00 0.00
10:53 am 10:53 Mostly Cloudy with Light Snow -4 -20 -10 -23.3 75 75 WNW 28 44 30.19 1022 1 2 0.00 0.00
11:53 am 11:53 Mostly Cloudy with Haze -4 -20 -11 -23.9 71 71 WNW 29 46 30.19 1023 1 1 0.00 0.00
12:08 pm 12:08 Mostly Cloudy with Light Snow -4 -20 -11 -23.9 71 71 WNW 28 44 30.32 1027 1 2 0.00 0.00
12:17 pm 12:17 Mostly Cloudy with Light Snow -4 -20 -10 -23.3 75 75 WNW 25 41 30.32 1027 1 1 0.00 0.00
12:40 pm 12:40 Cloudy with Haze -4 -20 -11 -23.9 71 71 NW 29 46 30.33 1027 1 2 0.00 0.00
12:53 pm 12:53 Mostly Cloudy with Haze -4 -20 -10 -23.3 75 75 WNW 26 43 30.20 1023 1 2 0.00 0.00
1:30 pm 13:30 Windy with Snow Likely -4 -20 -10 -23.3 75 75 WNW 26 43 30.34 1027 1 2 0.00 0.00
1:53 pm 13:53 Mostly Cloudy with Haze -4 -20 -10 -23.3 75 75 WNW 28 44 30.23 1024 1 2 0.00 0.00
2:13 pm 14:13 Mostly Cloudy with Light Snow -4 -20 -10 -23.3 75 75 WNW 31 50 30.35 1028 1 1 0.00 0.00
2:19 pm 14:19 Cloudy with Haze -4 -20 -10 -23.3 75 75 WNW 30 48 30.35 1028 2 2 0.00 0.00
2:32 pm 14:32 Cloudy with Haze -4 -20 -10 -23.3 75 75 WNW 30 48 30.35 1028 1 2 0.00 0.00
2:42 pm 14:42 Cloudy with Haze -4 -20 -10 -23.3 75 75 WNW 31 50 30.35 1028 2 2 0.00 0.00
2:53 pm 14:53 Cloudy with Haze -4 -20 -10 -23.3 75 75 WNW 32 52 30.25 1024 2 3 0.00 0.00
3:12 pm 15:12 Cloudy with Haze -4 -20 -10 -23.3 75 75 WNW 30 48 30.36 1028 3 5 0.00 0.00
3:29 pm 15:29 Cloudy with Haze -4 -20 -10 -23.3 75 75 WNW 23 37 30.37 1028 3 4 0.00 0.00
3:45 pm 15:45 Cloudy with Haze -4 -20 -10 -23.3 75 75 WNW 25 41 30.38 1029 2 3 0.00 0.00
3:53 pm 15:53 Cloudy with Haze -4 -20 -10 -23.3 75 75 WNW 23 37 30.28 1025 2 3 0.00 0.00
4:15 pm 16:15 Cloudy with Haze -4 -20 -10 -23.3 75 75 WNW 25 41 30.39 1029 3 5 0.00 0.00
4:28 pm 16:28 Cloudy with Haze -5 -20.6 -10 -23.3 79 79 WNW 25 41 30.40 1030 3 4 0.00 0.00
4:39 pm 16:39 Cloudy with Haze -5 -20.6 -11 -23.9 75 75 WNW 22 35 30.40 1030 3 5 0.00 0.00
4:49 pm 16:49 Cloudy with Haze -6 -21 -11 -24 77 77 NW 23 37 30.41 1030 3 4 0.00 0.00
4:53 pm 16:53 Mostly Cloudy with Haze -5 -20.6 -11 -23.9 75 75 WNW 22 35 30.31 1027 3 4 0.00 0.00
5:00 pm 17:00 Mostly Cloudy with Haze -5 -20.6 -11 -23.9 75 75 WNW 20 31 30.42 1030 4 6 0.00 0.00
5:44 pm 17:44 Mostly Cloudy with Haze -5 -20.6 -11 -23.9 75 75 WNW 21 33 30.45 1031 4 6 0.00 0.00
5:53 pm 17:53 Cloudy with Haze -6 -21.1 -11 -23.9 78 78 WNW 23 37 30.35 1028 6 10 0.00 0.00
6:53 pm 18:53 Hazy -6 -21.1 -12 -24.4 75 75 NW 25 41 30.38 1029 6 10 0.00 0.00
7:53 pm 19:53 Clear -6 -21.1 -13 -25 71 71 WNW 23 37 30.39 1029 9 14 0.00 0.00
8:53 pm 20:53 Clear -6 -21.1 -13 -25 71 71 NW 24 39 30.41 1030 10 16 0.00 0.00
9:53 pm 21:53 Clear -7 -21.7 -13 -25 75 75 NW 20 31 30.44 1031 10 16 0.00 0.00
10:53 pm 22:53 Clear -7 -21.7 -13 -25 75 75 NW 20 31 30.46 1032 10 16 0.00 0.00
11:53 pm 23:53 Clear -8 -22.2 -14 -25.6 74 74 NW 18 30 30.48 1032 10 16 0.00 0.00

Powered by Vaisala Xweather